Location: Dappach
(48.9767°N, 9.6998°E)
Time: 22:02:19
(UTC+00:00)

BREEZE-M DEB (TANK) - Pass Details

Date: 23 May 2024
Orbit: 290 x 16913 km, 49.4° (Epoch: 14 June)

Event Time Altitude Azimuth Distance (km) Brightness Sun altitude
Exits shadow 00:07:59 47° 203° (SSW) 832 3.2 -19.5°
Maximum altitude 00:08:04 47° 198° (SSW) 841 3.3 -19.5°
Drops below altitude 10° 00:15:23 10° 127° (SE) 3,968 6.9 -19.2°
Sets 00:21:48 0° 124° (SE) 6,778 8.2 -18.9°
